This is the latest recevied weather packets stored in our database for station/object N0HEQ. If no packets are shown the sender has not sent any weather packets the latest 10 day(s).
| Time | Temp. | Humidity | Pressure | Rain* | Wind** | Luminosity | Snow |
|---|---|---|---|---|---|---|---|
| 1777781043 | 14.44° C | 24% | 1020.1 hPa | 0 mm | - | 0 W/m² | - |
| 1777780740 | 14.44° C | 24% | 1019.9 hPa | 0 mm | - | 0 W/m² | - |
| 1777780437 | 15° C | 24% | 1019.9 hPa | 0 mm | - | 0 W/m² | - |
| 1777780134 | 15° C | 24% | 1020 hPa | 0 mm | - | 0 W/m² | - |
| 1777779832 | 15° C | 24% | 1020.1 hPa | 0 mm | - | 0 W/m² | - |
| 1777779529 | 15° C | 24% | 1020 hPa | 0 mm | - | 0 W/m² | - |
| 1777779226 | 15° C | 24% | 1020 hPa | 0 mm | - | 0 W/m² | - |
| 1777778924 | 15° C | 25% | 1019.9 hPa | 0 mm | - | 0 W/m² | - |
| 1777778623 | 15° C | 25% | 1020 hPa | 0 mm | - | 0 W/m² | - |
| 1777778320 | 15° C | 24% | 1020 hPa | 0 mm | - | 0 W/m² | - |
| 1777778017 | 15.56° C | 24% | 1019.9 hPa | 0 mm | - | 0 W/m² | - |
| 1777777714 | 15.56° C | 24% | 1020.3 hPa | 0 mm | - | 0 W/m² | - |
| 1777777410 | 15.56° C | 25% | 1020.1 hPa | 0 mm | - | 0 W/m² | - |
| 1777777107 | 15.56° C | 24% | 1020 hPa | 0 mm | - | 0 W/m² | - |
| 1777776804 | 15.56° C | 25% | 1019.9 hPa | 0 mm | - | 0 W/m² | - |
| 1777776501 | 15° C | 27% | 1019.8 hPa | 0 mm | - | 0 W/m² | - |
| 1777776198 | 15° C | 26% | 1020.1 hPa | 0 mm | - | 0 W/m² | - |
| 1777775895 | 15° C | 26% | 1019.8 hPa | 0 mm | - | 0 W/m² | - |
| 1777775592 | 15° C | 26% | 1019.9 hPa | 0 mm | - | 0 W/m² | - |
| 1777775289 | 15° C | 26% | 1019.6 hPa | 0 mm | - | 0 W/m² | - |
| 1777774988 | 15.56° C | 24% | 1019.9 hPa | 0 mm | - | 0 W/m² | - |
| 1777774685 | 16.11° C | 24% | 1019.6 hPa | 0 mm | - | 0 W/m² | - |
| 1777774381 | 16.67° C | 23% | 1019.5 hPa | 0 mm | - | 0 W/m² | - |
| 1777774079 | 16.67° C | 23% | 1019.8 hPa | 0 mm | - | 0 W/m² | - |
| 1777773777 | 17.22° C | 21% | 1019.5 hPa | 0 mm | - | 1 W/m² | - |
* Rain latest hour (hover to see other rain measurements)
** Current wind speed in m/s (hover to see current wind gust speed)